Location: Altenst�hlen
(53.5567°N, 8.9425°E)
Time: 08:14:23
(UTC+00:00)

ATLAS 5 CENTAUR R/B - Pass Details

Date: 23 October 2019
Orbit: 557 x 1102 km, 63.4° (Epoch: 11 November)

Event Time Altitude Azimuth Distance (km) Brightness Sun altitude
Rises 17:51:20 0° 270° (W) 2,906 6.9 -15.6°
Reaches altitude 10° 17:53:41 10° 281° (W) 2,065 5.6 -15.9°
Maximum altitude 17:57:54 32° 345° (NNW) 1,216 3.2 -16.5°
Enters shadow 18:01:47 14° 43° (NE) 2,050 3.8 -17.1°
